Hourly Weather Roundup
Issued by NWS Central Illinois

Home | Current Version | Previous Version | Text Only | Print | Product List | Glossary On
Versions: 1 2 3 4 5 6 7 8 9 10 11 12 13 14 15 16 17 18 19 20 21 22 23 24 25 26 27 28 29 30 31 32 33 34 35 36 37 38 39 40 41 42 43 44 45 46 47 48 49 50
000
NZUS43 KILX 250110
HWRILX

AREA WEATHER ROUNDUP
NATIONAL WEATHER SERVICE, LINCOLN IL
800 PM CDT THU JUL 24 2014


CITY           SKY/WX    TMP DP  RH WIND       PRES   REMARKS
BLOOMINGTON    PTCLDY    69  53  56 NE5       30.11R
CHAMPAIGN      CLEAR     69  56  62 NE5       30.09R
DECATUR        CLEAR     69  60  73 NE6       30.09R
FLORA          CLEAR     72  57  58 CALM      30.06R
GALESBURG      CLOUDY    72  59  64 E3        30.06F
JACKSONVILLE   PTCLDY    71  62  71 E5        30.08F
LACON          MOCLDY    69  56  63 E3        30.06F
LAWRENCEVILLE  CLEAR     72  61  68 NE5       30.05S
LITCHFIELD     CLEAR     69  55  59 N3        30.08S
$$


CITY           SKY/WX    TMP DP  RH WIND       PRES   REMARKS
LINCOLN        PTCLDY    72  57  59 CALM      30.06R
MACOMB         CLOUDY    70  64  81 CALM      30.07F
MATTOON        CLEAR     69  57  65 NW6       30.07R
MT CARMEL AP   CLEAR     73  61  64 NE3       30.04S
OLNEY-NOBLE AP CLEAR     66  64  94 CALM      30.05R
PARIS          CLEAR     67  62  84 CALM      30.07S
PEORIA         CLOUDY    74  56  53 NE3       30.07F
PONTIAC        PTCLDY    68  63  83 CALM      30.09
RANTOUL        CLEAR     72  55  56 CALM      30.10R
ROBINSON       CLEAR     71  62  71 CALM      30.06S
SPRINGFIELD    PTCLDY    73  58  59 CALM      30.08S
TAYLORVILLE    CLEAR     68  59  73 N5        30.08S
$$

...REGIONAL REPORTS...


CITY           SKY/WX    TMP DP  RH WIND       PRES   REMARKS
CHICAGO O`HARE MOCLDY    69  41  36 E7        30.09S
KANKAKEE       CLEAR     66  55  67 CALM      30.09S
MOLINE         CLOUDY    71  59  65 SW3       30.07S
MOUNT VERNON   CLEAR     72  57  60 N3        30.07R
PITTSFIELD     PTCLDY    71  60  69 CALM      30.07F
QUINCY         PTCLDY    73  56  54 SE6       30.04F
ROCKFORD       CLOUDY    71  56  58 SW3       30.07F
$$


CITY           SKY/WX    TMP DP  RH WIND       PRES   REMARKS
BURLINGTON     CLOUDY    69  61  75 NW7       30.10R
CEDAR RAPIDS   CLOUDY    70  62  76 S8        30.04F
DES MOINES     CLOUDY    73  63  70 S12       30.01F
KIRKSVILLE     MOCLDY    72  62  71 SE6       30.07F
OTTUMWA        CLOUDY    70  63  78 NW7       30.11R
ST LOUIS       PTCLDY    76  53  44 N9        30.08R
$$


CITY           SKY/WX    TMP DP  RH WIND       PRES   REMARKS
TERRE HAUTE    CLEAR     66  57  72 NE5       30.05F
EVANSVILLE     CLEAR     75  56  51 NE5       30.03F
INDIANAPOLIS   PTCLDY    70  50  49 N7        30.06S
LAFAYETTE      CLEAR     68  53  58 N5        30.06S
MADISON        MOCLDY    75  55  49 S7        30.03F
MILWAUKEE      MOCLDY    65  44  46 S6        30.08F
$$





USA.gov is the U.S. government's official web portal to all federal, state and local government web resources and services.